GW0416 Weather Reports


Display with metric or nautical units.
time (UTC)temp
F
wind
direction
speed
MPH
gust
MPH
rain 1hr
in
rain 24hr
in
rain mn
in
humidity
%
barometer
mb
20260906103035 54 32 17.0 22.0 0.00 0.00 0.00 93 1019.2
20260906101543 54 15 15.0 20.0 0.00 0.00 0.00 93 1019.5
20260906100039 54 360 17.0 23.0 0.00 0.00 0.00 93 1019.2
20260906094536 53 11 15.0 24.0 0.00 0.00 0.00 93 1019.2
20260906093038 53 17 19.0 24.0 0.00 0.00 0.00 93 1019.2
20260906091535 53 13 20.0 26.0 0.00 0.00 0.00 93 1019.2
20260906090035 54 14 20.0 25.0 0.00 0.00 0.00 92 1019.5
20260906084538 53 13 19.0 25.0 0.00 0.00 0.00 92 1019.6
20260906083038 54 16 16.0 24.0 0.00 0.00 0.00 91 1019.6
20260906081536 54 5 20.0 25.0 0.00 0.00 0.00 90 1019.6
20260906080034 54 18 17.0 25.0 0.00 0.00 0.00 89 1019.8
20260906074537 55 28 19.0 27.0 0.00 0.00 0.00 89 1019.9
20260906073037 55 23 18.0 26.0 0.00 0.00 0.00 88 1020.2
20260906071535 55 26 19.0 25.0 0.00 0.00 0.00 88 1020.2
20260906070035 55 12 18.0 24.0 0.00 0.00 0.00 87 1020.2
20260906064535 56 14 18.0 23.0 0.00 0.00 0.00 86 1020.6
20260906063033 55 10 15.0 21.0 0.00 0.00 0.00 87 1020.6
20260906061538 56 18 18.0 24.0 0.00 0.00 0.00 86 1020.7
20260906060038 56 25 17.0 24.0 0.00 0.00 0.00 85 1020.6
20260906054552 56 24 19.0 24.0 0.00 0.00 0.00 85 1020.6
20260906053034 56 28 19.0 29.0 0.00 0.00 0.00 85 1020.3
20260906051556 56 22 22.0 28.0 0.00 0.00 0.00 85 1020.4
20260906050037 56 19 19.0 29.0 0.00 0.00 0.00 84 1020.6
20260906044533 57 15 19.0 27.0 0.00 0.00 0.00 83 1020.6
20260906043035 57 28 20.0 27.0 0.00 0.00 0.00 82 1019.9
20260906041535 57 10 22.0 31.0 0.00 0.00 0.00 80 1019.5
20260906040103 58 34 22.0 29.0 0.00 0.00 0.00 79 1019.9
20260906034534 58 15 24.0 30.0 0.00 0.00 0.00 75 1020.1
20260906033051 59 15 20.0 29.0 0.00 0.00 0.00 73 1020.3
20260906031536 59 13 24.0 30.0 0.00 0.00 0.00 74 1019.7
20260906030036 58 17 23.0 28.0 0.00 0.00 0.00 74 1019.2
20260906024534 59 24 20.0 28.0 0.00 0.00 0.00 72 1019.0
20260906023035 59 15 21.0 27.0 0.00 0.00 0.00 71 1018.8
20260906021535 60 22 22.0 28.0 0.00 0.00 0.00 70 1018.8
20260906020036 60 19 22.0 29.0 0.00 0.00 0.00 70 1018.8
20260906014535 61 19 22.0 28.0 0.00 0.00 0.00 68 1018.8
20260906013035 62 21 19.0 25.0 0.00 0.00 0.00 66 1018.7
20260906011535 63 15 16.0 25.0 0.00 0.00 0.00 63 1018.7
20260906010036 64 21 19.0 26.0 0.00 0.00 0.00 62 1018.7
20260906004537 66 29 20.0 27.0 0.00 0.00 0.00 59 1018.7
20260906003034 67 17 18.0 26.0 0.00 0.00 0.00 57 1018.8
20260906001534 67 15 20.0 25.0 0.00 0.00 0.00 56 1018.7
20260906000039 68 15 17.0 25.0 0.00 0.00 0.00 54 1018.8
20260905234537 69 5 17.0 24.0 0.00 0.00 0.00 52 1019.0
20260905233033 70 46 14.0 22.0 0.00 0.00 0.00 47 1018.9
20260905231538 71 15 16.0 23.0 0.00 0.00 0.00 48 1018.8
20260905230036 71 23 17.0 23.0 0.00 0.00 0.00 47 1018.7
20260905224607 71 9 18.0 25.0 0.00 0.00 0.00 47 1018.6
20260905223043 72 20 10.0 19.0 0.00 0.00 0.00 43 1018.6
20260905221537 72 32 10.0 18.0 0.00 0.00 0.00 43 1018.8
20260905220033 72 43 15.0 20.0 0.00 0.00 0.00 43 1018.8
20260905214538 73 44 8.0 11.0 0.00 0.00 0.00 41 1018.9
20260905213041 72 12 3.0 8.0 0.00 0.00 0.00 43 1019.1
20260905211542 72 342 7.0 11.0 0.00 0.00 0.00 41 1019.3
20260905210047 71 302 8.0 14.0 0.00 0.00 0.00 40 1019.1
20260905204539 71 300 5.0 13.0 0.00 0.00 0.00 40 1019.2
20260905203038 71 305 9.0 16.0 0.00 0.00 0.00 39 1019.4
20260905201535 70 44 9.0 14.0 0.00 0.00 0.00 40 1019.5
20260905200036 69 329 9.0 18.0 0.00 0.00 0.00 42 1019.7
20260905194541 69 355 11.0 17.0 0.00 0.00 0.00 43 1019.7
20260905193037 69 340 9.0 19.0 0.00 0.00 0.00 43 1019.6
20260905191536 69 313 8.0 19.0 0.00 0.00 0.00 43 1019.9
20260905190035 68 300 5.0 15.0 0.00 0.00 0.00 44 1020.2
20260905184547 68 344 10.0 15.0 0.00 0.00 0.00 44 1020.2
20260905183034 67 315 6.0 13.0 0.00 0.00 0.00 48 1020.4
20260905181535 67 265 7.0 11.0 0.00 0.00 0.00 49 1020.3
20260905180041 66 289 9.0 12.0 0.00 0.00 0.00 51 1020.5
20260905174537 65 281 6.0 14.0 0.00 0.00 0.00 54 1020.3
20260905173041 65 322 7.0 14.0 0.00 0.00 0.00 56 1020.3
20260905171535 65 329 7.0 13.0 0.00 0.00 0.00 57 1020.3
20260905170033 64 311 4.0 11.0 0.00 0.00 0.00 58 1020.4
20260905164534 63 282 8.0 12.0 0.00 0.00 0.00 61 1020.4
20260905163037 62 360 7.0 13.0 0.00 0.00 0.00 65 1020.2
20260905161550 62 355 5.0 11.0 0.00 0.00 0.00 65 1020.4
20260905160035 61 30 7.0 11.0 0.00 0.00 0.00 69 1020.3
20260905154535 60 348 8.0 11.0 0.00 0.00 0.00 74 1020.0
20260905153036 59 344 8.0 15.0 0.00 0.00 0.00 77 1020.1
20260905151535 57 336 8.0 13.0 0.00 0.00 0.00 84 1019.8
20260905150035 55 346 4.0 10.0 0.00 0.00 0.00 85 1020.0
20260905144536 54 346 6.0 10.0 0.00 0.00 0.00 87 1020.1
20260905143036 53 319 6.0 14.0 0.00 0.00 0.00 87 1020.2
20260905141536 53 360 9.0 17.0 0.00 0.00 0.00 86 1019.6
20260905140036 52 295 10.0 19.0 0.00 0.00 0.00 84 1019.5
20260905134535 52 269 11.0 18.0 0.00 0.00 0.00 78 1020.8
20260905133038 54 248 9.0 16.0 0.00 0.00 0.00 76 1020.8
20260905131534 52 288 6.0 9.0 0.00 0.00 0.00 79 1019.2
20260905130034 51 284 9.0 11.0 0.00 0.00 0.00 79 1018.5
20260905124536 51 360 7.0 10.0 0.00 0.00 0.00 78 1018.7
20260905123035 52 292 2.0 5.0 0.00 0.00 0.00 76 1019.3
20260905121534 53 258 6.0 12.0 0.00 0.00 0.00 75 1019.6
20260905120036 52 270 9.0 14.0 0.00 0.00 0.00 74 1019.3
20260905114537 52 259 9.0 13.0 0.00 0.00 0.00 73 1018.9
20260905113038 53 280 7.0 12.0 0.00 0.00 0.00 72 1018.6
20260905111535 53 254 7.0 10.0 0.00 0.00 0.00 72 1018.5
20260905110037 52 259 6.0 10.0 0.00 0.00 0.00 73 1018.4
20260905104540 50 304 4.0 8.0 0.00 0.00 0.00 76 1017.6